TimeMST,TemperatureF,Dew PointF,Humidity,Sea Level PressureIn,VisibilityMPH,Wind Direction,Wind SpeedMPH,Gust SpeedMPH,PrecipitationIn,Events,Conditions,WindDirDegrees,DateUTC
12:57 AM,48.9,37.9,66,29.86,10.0,Calm,Calm,-,N/A,,Clear,0,2013-12-21 07:57:00
1:57 AM,46.9,39.9,77,29.85,10.0,South,6.9,-,N/A,,Clear,170,2013-12-21 08:57:00
2:57 AM,46.0,39.9,79,29.84,10.0,SSE,5.8,-,N/A,,Clear,160,2013-12-21 09:57:00
3:57 AM,46.0,39.9,79,29.85,10.0,South,4.6,-,N/A,,Clear,170,2013-12-21 10:57:00
4:57 AM,45.0,39.0,80,29.84,10.0,SSE,5.8,-,N/A,,Clear,160,2013-12-21 11:57:00
5:21 AM,-9999,-9999,N/A,-9999,-9999.0,North,-9999.0,-,N/A,,Unknown,0,2013-12-21 12:21:00
5:57 AM,45.0,39.9,82,29.85,10.0,South,6.9,-,N/A,,Clear,170,2013-12-21 12:57:00
6:57 AM,44.1,39.9,85,29.87,10.0,South,3.5,-,N/A,,Clear,180,2013-12-21 13:57:00
7:57 AM,44.1,39.9,85,29.89,10.0,SSE,5.8,-,N/A,,Partly Cloudy,160,2013-12-21 14:57:00
8:57 AM,48.9,43.0,80,29.91,10.0,SSE,4.6,-,N/A,,Partly Cloudy,150,2013-12-21 15:57:00
9:57 AM,53.1,44.1,71,29.92,10.0,South,6.9,-,N/A,,Partly Cloudy,190,2013-12-21 16:57:00
10:57 AM,57.0,41.0,55,29.93,10.0,SSW,6.9,-,N/A,,Partly Cloudy,210,2013-12-21 17:57:00
11:57 AM,60.1,37.9,44,29.92,10.0,WSW,5.8,-,N/A,,Partly Cloudy,240,2013-12-21 18:57:00
12:57 PM,64.0,36.0,35,29.90,10.0,SW,6.9,-,N/A,,Clear,220,2013-12-21 19:57:00
1:57 PM,64.9,35.1,33,29.88,10.0,SSW,8.1,-,N/A,,Clear,210,2013-12-21 20:57:00
2:57 PM,64.9,34.0,32,29.87,10.0,Variable,3.5,-,N/A,,Clear,0,2013-12-21 21:57:00
3:00 PM,-9999,-9999,N/A,-9999,-9999.0,North,-9999.0,-,N/A,,Unknown,0,2013-12-21 22:00:00
3:57 PM,66.0,34.0,30,29.88,10.0,SSW,6.9,-,N/A,,Clear,200,2013-12-21 22:57:00
4:57 PM,64.0,36.0,35,29.89,10.0,South,8.1,-,N/A,,Clear,170,2013-12-21 23:57:00
5:57 PM,60.1,39.0,46,29.91,10.0,SSW,5.8,-,N/A,,Clear,200,2013-12-22 00:57:00
6:57 PM,57.0,39.9,53,29.94,10.0,South,6.9,-,N/A,,Clear,170,2013-12-22 01:57:00
7:57 PM,54.0,41.0,62,29.97,10.0,SSE,3.5,-,N/A,,Clear,160,2013-12-22 02:57:00
8:57 PM,53.1,43.0,69,29.98,10.0,South,5.8,-,N/A,,Clear,170,2013-12-22 03:57:00
9:57 PM,52.0,43.0,71,29.99,10.0,SSE,5.8,-,N/A,,Clear,160,2013-12-22 04:57:00
10:57 PM,53.1,45.0,74,30.02,10.0,SSE,4.6,-,N/A,,Clear,160,2013-12-22 05:57:00
11:57 PM,52.0,44.1,74,30.04,10.0,Calm,Calm,-,N/A,,Clear,0,2013-12-22 06:57:00